User: anonymous   Login
Location: Unspecified
(0.0000°N, 0.0000°E)
Time: 07:40:58
(UTC+00:00)
Language:

Transit 2A - Orbit

View from above orbital plane
View from above orbital plane
View from above satellite
View from above satellite

Ground track
Ground track

The orbit data is extracted from the following two-line orbital elements,

1 00045U 60007A   15145.59384676  .00000091  00000-0  49472-4 0  9996
2 00045 066.6945 214.8397 0261570 223.1687 134.8645 14.33349871857555
Epoch (UTC): 25 May 2015 14:15:08
Eccentricity: 0.0261570
inclination: 66.6945°
perigee height: 593 km
apogee height: 968 km
right ascension of ascending node: 214.8397°
argument of perigee: 223.1687°
revolutions per day: 14.33349871
mean anomaly at epoch: 134.8645°
orbit number at epoch: 85755

The dashed part of the orbit path shows where the satellite is in the earth's shadow,  

DLR